Find Starlink 2395

NORAD ID: 47814 Int'l Des: 2021-018 Owner: SPXS Country: US Constellation: starlink operational
LEOCIRCULAR

当前视图

正在加载3D地球...

About Starlink 2395

Starlink 2395 (NORAD 47814) is a starlink constellation satellite (v1.0) launched Mar 11, 2021 by SPXS of US. It operates in LEO, CIRCULAR orbit with a mass of 260.00 kg.

即将过境

Passes for default location (London). Set your location on the main map for personalized predictions.

高度历史

Loading altitude history...

两行轨道根数

1 47814U 21018AD 26224.30565562 .00018863 00000-0 60216-3 0 9998
2 47814 53.1576 238.6276 0001833 54.5632 305.5540 15.32538811300638
Epoch: Aug 12, 2026 • Age: 16 hours

当前状态

高度 469.9 km
远地点 / 近地点 N/A
速度 7.64 km/s
星下点 36.92°N, 39.78°W
发射日期 Mar 11, 2021
运行时间 5.4 years
类型 internet

技术详情

分类 Payload
质量 260.00 kg
干质量 248.00 kg
总质量 260.00 kg
长度 0.20 m
直径 2.80 m
跨度 9.00 m
形状 Box + pan
制造商 SPXS
平台类型 Starlink
阶段状态 In Orbit
所有者/国家 SPXS/US

Most Searched